Date String (YYYY-MM-DD hh:mm:ss) UTC,Instrument flags,Ambient pressure (hPa),Sample flow (lpm),Bypass flow (lpm),Sample temperature (°C),Ambient temperature (°C),ASC tube jacket temperature (°C),LED temperature (°C),Box temperature (°C),Sample RH (%),Span deviation,Mass concentration (μg/m³),Mass concentration (μg/m³),Mass concentration (μg/m³)
DateTimeUTC,F1_M11,P_M11,Q1_M11,Q2_M11,T1_M11,T2_M11,T3_M11,T4_M11,T5_M11,U1_M11,ZSPAN_M11,X2_M11,X0_M11,X1_M11
2022-08-13 13:00:00,,0833.3,4.99,0.00,29.6,27.7,00.0,38.4,31.4,33.2,0000.0,0005.60,0011.28,0004.63
2022-08-13 13:01:00,,0833.3,5.01,0.00,29.6,27.7,00.0,38.4,31.3,33.3,0000.0,0005.57,0011.57,0004.62
2022-08-13 13:02:00,,0833.3,4.99,0.00,29.5,27.8,00.0,38.4,31.3,33.3,0000.0,0005.58,0011.59,0004.62
2022-08-13 13:03:00,,0833.3,5.02,0.00,29.5,27.9,00.0,38.3,31.3,33.2,0000.0,0005.61,0011.79,0004.62
2022-08-13 13:04:00,,0833.2,5.00,0.00,29.5,28.0,00.0,38.3,31.4,33.3,0000.0,0005.61,0011.71,0004.62
2022-08-13 13:05:00,,0833.2,4.99,0.00,29.5,28.1,00.0,38.3,31.4,33.3,0000.0,0005.66,0012.13,0004.62
2022-08-13 13:06:00,,0833.2,5.01,0.00,29.5,28.2,00.0,38.3,31.4,33.5,0000.0,0005.67,0012.16,0004.62
2022-08-13 13:07:00,,0833.2,5.00,0.00,29.5,28.3,00.0,38.3,31.4,33.5,0000.0,0005.65,0011.76,0004.65
2022-08-13 13:08:00,,0833.2,5.00,0.00,29.5,28.4,00.0,38.3,31.4,33.5,0000.0,0005.66,0011.88,0004.68
2022-08-13 13:09:00,,0833.2,5.00,0.00,29.5,28.4,00.0,38.3,31.5,33.5,0000.0,0005.74,0012.17,0004.72
2022-08-13 13:10:00,,0833.2,4.99,0.00,29.6,28.5,00.0,38.4,31.5,33.5,0000.0,0005.82,0012.41,0004.74
2022-08-13 13:11:00,,0833.2,5.00,0.00,29.6,28.6,00.0,38.4,31.5,33.3,0000.0,0005.84,0011.82,0004.76
2022-08-13 13:12:00,,0833.2,5.00,0.00,29.6,28.6,00.0,38.4,31.5,33.4,0000.0,0005.85,0012.07,0004.80
2022-08-13 13:13:00,,0833.3,5.00,0.00,29.6,28.7,00.0,38.4,31.6,33.3,0000.0,0005.88,0012.76,0004.83
2022-08-13 13:14:00,,0833.3,5.01,0.00,29.6,28.7,00.0,38.4,31.6,33.2,0000.0,0005.90,0012.68,0004.85
2022-08-13 13:15:00,,0833.2,4.99,0.00,29.7,28.7,00.0,38.4,31.6,32.9,0000.0,0005.96,0012.55,0004.87
2022-08-13 13:16:00,,0833.2,5.00,0.00,29.7,28.8,00.0,38.4,31.6,32.8,0000.0,0005.97,0012.37,0004.89
2022-08-13 13:17:00,,0833.2,5.00,0.00,29.7,28.8,00.0,38.4,31.7,32.9,0000.0,0006.00,0012.56,0004.91
2022-08-13 13:18:00,,0833.2,5.00,0.00,29.7,28.8,00.0,38.4,31.7,32.7,0000.0,0006.01,0013.15,0004.90
2022-08-13 13:19:00,,0833.2,5.01,0.00,29.7,28.9,00.0,38.5,31.7,32.7,0000.0,0006.03,0013.14,0004.91
2022-08-13 13:20:00,,0833.1,5.00,0.00,29.7,28.9,00.0,38.5,31.7,32.7,0000.0,0006.02,0013.17,0004.90
2022-08-13 13:21:00,,0833.1,5.00,0.00,29.8,28.5,00.0,38.4,31.6,32.7,0000.0,0006.00,0013.15,0004.89
2022-08-13 13:22:00,,0833.2,5.01,0.00,29.7,27.8,00.0,38.4,31.3,32.9,0000.0,0005.99,0013.15,0004.89
2022-08-13 13:23:00,,0833.1,5.00,0.00,29.6,27.4,00.0,38.4,31.3,33.3,0000.0,0005.98,0013.06,0004.89
2022-08-13 13:24:00,,0833.1,5.00,0.00,29.5,27.3,00.0,38.3,31.2,33.5,0000.0,0006.00,0012.87,0004.91
2022-08-13 13:25:00,,0833.1,5.01,0.00,29.5,27.4,00.0,38.3,31.2,33.5,0000.0,0006.01,0012.74,0004.92
2022-08-13 13:26:00,,0833.1,5.00,0.00,29.4,27.5,00.0,38.3,31.2,33.5,0000.0,0005.99,0012.70,0004.93
2022-08-13 13:27:00,,0833.1,5.00,0.00,29.4,27.6,00.0,38.3,31.2,33.5,0000.0,0005.98,0013.20,0004.94
2022-08-13 13:28:00,,0833.1,5.00,0.00,29.4,27.8,00.0,38.3,31.3,33.5,0000.0,0005.99,0013.38,0004.95
2022-08-13 13:29:00,,0833.1,5.01,0.00,29.4,27.9,00.0,38.3,31.3,33.4,0000.0,0006.01,0013.00,0004.96
2022-08-13 13:30:00,,0833.1,5.01,0.00,29.4,28.0,00.0,38.3,31.3,33.6,0000.0,0006.01,0013.52,0004.95
2022-08-13 13:31:00,,0833.1,5.00,0.00,29.4,28.1,00.0,38.2,31.3,33.6,0000.0,0006.04,0013.93,0004.95
2022-08-13 13:32:00,,0833.1,4.99,0.00,29.4,28.2,00.0,38.2,31.4,33.6,0000.0,0006.08,0014.80,0004.97
2022-08-13 13:33:00,,0833.1,5.00,0.00,29.5,28.3,00.0,38.2,31.4,33.5,0000.0,0006.13,0016.21,0004.98
2022-08-13 13:34:00,,0833.1,5.01,0.00,29.5,28.4,00.0,38.3,31.4,33.5,0000.0,0006.27,0016.32,0004.98
2022-08-13 13:35:00,,0833.1,5.00,0.00,29.5,28.5,00.0,38.3,31.4,33.6,0000.0,0006.30,0016.10,0004.96
2022-08-13 13:36:00,,0833.1,4.99,0.00,29.5,28.5,00.0,38.3,31.5,33.8,0000.0,0006.33,0016.97,0004.96
2022-08-13 13:37:00,,0833.1,5.00,0.00,29.5,28.6,00.0,38.3,31.5,33.6,0000.0,0006.34,0018.54,0004.95
2022-08-13 13:38:00,,0833.1,5.00,0.00,29.5,28.6,00.0,38.3,31.5,33.5,0000.0,0006.33,0018.93,0004.94
2022-08-13 13:39:00,,0833.0,5.00,0.00,29.6,28.7,00.0,38.3,31.5,33.6,0000.0,0006.32,0019.05,0004.92
2022-08-13 13:40:00,,0833.0,5.01,0.00,29.6,28.7,00.0,38.3,31.6,33.6,0000.0,0006.30,0018.94,0004.91
2022-08-13 13:41:00,,0833.0,5.00,0.00,29.6,28.8,00.0,38.3,31.6,34.1,0000.0,0006.29,0018.48,0004.90
2022-08-13 13:42:00,,0833.0,5.00,0.00,29.6,28.8,00.0,38.4,31.6,33.6,0000.0,0006.27,0018.06,0004.90
2022-08-13 13:43:00,,0833.0,5.00,0.00,29.7,28.8,00.0,38.4,31.6,34.0,0000.0,0006.25,0017.19,0004.89
2022-08-13 13:44:00,,0833.1,5.00,0.00,29.7,28.9,00.0,38.4,31.6,34.4,0000.0,0006.22,0015.92,0004.87
2022-08-13 13:45:00,,0833.0,5.00,0.00,29.7,28.5,00.0,38.4,31.5,34.3,0000.0,0006.08,0015.49,0004.85
2022-08-13 13:46:00,,0833.1,5.01,0.00,29.6,27.8,00.0,38.3,31.3,34.4,0000.0,0006.01,0015.33,0004.83
2022-08-13 13:47:00,,0833.0,4.99,0.00,29.6,27.4,00.0,38.3,31.2,34.6,0000.0,0005.97,0014.47,0004.82
2022-08-13 13:48:00,,0833.1,4.99,0.00,29.5,27.3,00.0,38.3,31.1,34.9,0000.0,0005.95,0013.01,0004.82
2022-08-13 13:49:00,,0833.0,5.01,0.00,29.5,27.4,00.0,38.3,31.2,35.0,0000.0,0005.94,0012.15,0004.82
2022-08-13 13:50:00,,0833.0,5.00,0.00,29.6,27.5,00.0,38.3,31.3,35.0,0000.0,0005.98,0011.85,0004.85
2022-08-13 13:51:00,,0833.1,4.99,0.00,29.8,27.6,00.0,38.2,31.4,34.5,0000.0,0005.97,0012.08,0004.85
2022-08-13 13:52:00,,0833.1,4.99,0.00,29.9,27.8,00.0,38.3,31.4,34.4,0000.0,0005.96,0011.97,0004.84
2022-08-13 13:53:00,,0833.0,5.01,0.00,30.0,27.9,00.0,38.3,31.4,34.5,0000.0,0005.92,0012.39,0004.84
2022-08-13 13:54:00,,0833.0,5.00,0.00,30.0,28.1,00.0,38.3,31.4,34.3,0000.0,0005.88,0013.24,0004.83
2022-08-13 13:55:00,,0833.1,5.00,0.00,30.1,28.2,00.0,38.4,31.5,34.3,0000.0,0005.84,0013.63,0004.84
2022-08-13 13:56:00,,0833.0,5.00,0.00,30.1,28.3,00.0,38.4,31.5,34.6,0000.0,0005.86,0013.90,0004.85
2022-08-13 13:57:00,,0833.0,5.01,0.00,30.1,28.4,00.0,38.4,31.5,34.5,0000.0,0005.86,0013.95,0004.88
2022-08-13 13:58:00,,0833.0,5.00,0.00,30.1,28.4,00.0,38.5,31.5,34.5,0000.0,0005.83,0013.86,0004.89
2022-08-13 13:59:00,,0833.0,4.99,0.00,30.1,28.5,00.0,38.5,31.6,34.7,0000.0,0005.81,0013.89,0004.89
